Hlavní strana
METAR-TAF:

METAR-TAF

Letiště :

Morristown, Tennessee, Spojené státy americké

zeměpisná šířka: 36-10-46N, zeměpisná délka: 083-22-32W, výška: 400 m

Aktuální stav počasí

Zpráva byla vytvořena před 15 minutami, v 06:35 UTC
Severovýchodní vítr 6 kt
Teplota 1°C
Vlhkost vzduchu 40%
Tlak 1022 hPa
Viditelnost: 16.1 km
Zataženo ve výšce 10000 ft

METAR: KMOR 240635Z AUTO 05006KT 10SM OVC100 01/M11 A3018 RMK A01

Čas: 00:50 (06:50 UTC)


TAF: chybějící

Stav a předpovědi počasí z více než 4 000 letišť (zprávy METAR a TAF).

Červené a žluté tečky na mapě představují dostupné meteorologické stanice.

Když kurzor umístíte na tečku, zobrazí se název stanice.

Pak kliknutím zobrazíte stav a předpověď počasí.

Chcete-li změnit mapu, kliknutím na zelené tlačítko se znaménkem +mapu přiblížíte, kliknutím na zelené tlačítko se znaménkem – mapu oddálíte a kliknutím na zelené šipky přejdete na sousední mapy.


METAR-TAF: